SCP
0 0 1 1 1 1 0 1 1 1 1 0 0 0 0 0 0 0 0 0 0 0 0 0 0 0 0 0 0 0 0 0 0 0 0 0 0 1 1 1 1 1 1
0 0 1 1 1 1 1 1 1 1 1 0 0 0 0 0 0 0 0 0 0 0 0 0 0 0 0 1 1 0 0 0 0 0 0 0 0 1 1 1 1 1 1
0 0 1 1 1 1 1 1 1 1 0 0 0 0 0 0 0 0 0 0 0 0 0 0 0 1 1 1 1 1 1 1 1 1 0 0 0 1 1 1 1 1 1
0 1 1 1 1 1 1 1 1 1 0 0 0 0 0 0 0 0 1 1 1 1 1 1 1 1 1 1 0 1 1 1 1 1 1 0 0 0 1 1 1 1 1
1 1 1 1 1 1 1 1 1 0 0 0 0 0 0 0 1 1 1 1 1 1 1 1 1 1 0 0 0 0 1 1 1 1 0 0 0 1 1 1 1 1 1
1 1 1 1 1 1 1 1 1 0 0 0 0 0 0 0 0 1 1 1 1 1 1 1 1 0 0 0 0 0 0 0 0 0 0 0 0 1 1 1 1 1 1
1 1 1 1 1 1 1 1 1 0 0 0 0 0 0 0 0 0 1 1 1 1 1 1 1 0 0 0 0 0 0 0 0 0 0 0 0 0 1 1 1 1 1
1 1 1 1 1 1 0 0 0 0 0 0 0 0 0 0 0 0 0 0 0 0 0 0 0 0 1 1 1 1 1 0 0 0 0 0 0 0 0 0 1 1 1
1 2 1 1 1 0 0 0 0 0 0 0 0 0 0 0 0 0 0 0 0 0 0 0 0 0 0 1 1 1 1 1 0 0 0 0 0 0 0 0 0 0 1
2 2 2 1 1 0 0 0 0 0 0 0 0 0 0 0 0 0 0 0 0 0 0 0 0 0 0 0 1 1 1 0 0 0 0 0 0 0 0 0 0 1 1
2 2 2 1 1 0 0 0 0 0 0 0 0 0 0 0 0 0 0 0 0 0 0 0 0 0 0 0 0 1 0 0 0 0 0 0 0 0 0 0 0 0 1
1 1 2 1 1 1 0 1 1 1 0 0 0 0 0 0 0 0 0 0 0 0 0 0 0 0 0 0 0 0 0 0 0 0 0 0 0 0 0 0 0 0 0
1 1 1 1 1 1 1 1 1 1 0 0 0 0 0 0 0 0 0 0 0 0 0 0 0 0 0 0 0 0 0 0 0 0 0 0 1 0 0 0 0 0 0
1 1 1 1 1 1 1 1 1 1 0 0 0 0 0 0 0 0 0 0 0 0 0 0 0 0 0 0 0 0 0 0 0 0 0 0 0 0 0 0 0 0 0
1 1 1 1 1 1 1 1 1 1 1 0 0 0 0 0 0 0 0 0 0 0 0 0 0 0 0 0 0 0 0 0 0 0 0 0 0 0 0 0 0 0 0
1 1 1 1 1 1 1 1 1 1 1 1 0 0 0 0 0 0 0 0 0 0 0 0 0 0 0 0 0 0 0 0 0 0 0 0 0 0 0 0 0 0 0
1 1 1 1 1 1 1 1 1 1 1 1 0 0 0 0 0 0 0 0 0 0 0 0 0 0 0 0 0 0 0 0 0 0 0 0 0 0 0 0 0 0 0
1 2 2 1 1 1 1 2 1 1 1 1 0 0 0 0 0 0 0 0 0 0 0 0 0 0 0 0 0 0 0 0 0 0 0 0 0 0 0 0 0 0 0
1 2 2 2 1 1 2 2 1 1 1 1 0 0 0 0 0 0 0 0 0 0 0 0 0 0 0 0 0 0 0 0 0 0 0 0 0 0 0 0 0 0 0
1 2 2 2 2 2 2 2 1 1 1 1 1 1 0 0 0 0 0 0 0 0 0 0 0 0 0 0 0 0 0 0 0 0 0 0 0 0 0 0 0 0 0
1 2 2 2 2 2 2 2 1 1 1 1 1 1 0 0 0 0 0 0 0 0 0 0 0 0 0 0 0 0 0 0 0 0 0 0 0 0 0 0 0 0 0
1 1 1 2 2 2 1 1 1 1 1 1 1 1 0 0 0 0 0 0 0 0 0 0 0 0 0 0 0 0 0 0 0 0 0 0 0 0 0 0 0 0 0
2 2 1 2 2 2 1 1 1 1 1 1 1 1 0 0 0 0 0 0 0 0 0 0 0 0 0 0 0 0 0 0 0 0 0 0 0 0 0 0 0 0 0
3 2 2 2 2 2 1 1 1 1 1 1 1 1 0 0 0 0 0 0 0 0 0 0 0 0 0 0 0 0 0 0 0 0 0 0 0 0 0 0 0 0 0
3 3 2 2 2 2 1 1 1 1 1 1 1 1 1 0 0 0 0 0 0 0 0 0 0 0 0 0 0 0 0 0 0 0 0 0 0 0 0 0 0 0 0
4 3 3 3 2 2 1 1 1 1 1 1 1 1 1 1 0 0 0 0 0 0 0 0 0 0 0 0 0 0 0 0 0 0 0 0 0 0 0 0 0 0 0
Wind_Speed
6 8 9 9 9 9 9 9 10 10 10 10 10 10 10 10 11 11 11 11 11 11 11 10 10 10 10 11 11 10 10 9 9 9 10 10 10 10 10 9 9 7 9
8 8 9 9 9 9 9 10 10 10 10 10 9 9 10 10 10 10 10 10 10 10 10 10 9 9 10 10 10 9 8 7 7 7 8 9 10 10 10 11 10 6 9
9 8 9 9 9 9 9 10 10 10 10 10 9 9 10 10 10 10 10 10 10 11 10 10 10 10 10 9 9 8 7 6 5 4 4 4 7 10 10 10 10 9 9
9 8 9 10 10 9 10 10 10 10 10 10 9 9 10 10 10 10 10 10 10 10 10 10 10 10 10 9 8 7 6 5 5 4 4 5 6 10 10 10 9 9 9
9 9 10 11 11 10 10 10 10 10 10 10 9 9 10 10 10 9 9 10 10 10 10 10 10 10 9 9 8 7 5 5 5 6 5 6 6 9 10 10 9 9 9
10 10 10 11 11 10 10 10 10 10 10 10 10 9 9 9 9 9 9 9 9 9 9 9 9 9 9 8 7 7 6 6 6 5 6 6 5 9 10 10 9 9 9
9 10 10 11 11 10 10 10 10 9 9 9 9 9 9 9 9 9 9 9 9 9 9 9 9 8 8 7 7 6 6 6 4 5 6 6 7 11 10 10 10 9 9
9 10 10 11 11 10 10 10 9 9 8 8 8 9 9 9 9 9 9 9 8 8 8 8 8 8 7 7 6 6 7 6 7 8 6 6 9 10 10 10 10 10 9
8 9 8 8 9 10 10 9 8 8 8 7 8 8 8 8 8 9 9 8 8 8 8 8 8 7 7 6 5 6 7 8 6 5 7 5 9 10 10 10 10 9 9
7 6 7 7 8 8 7 8 8 8 7 7 6 7 7 7 8 9 8 8 8 8 7 7 7 6 5 4 4 5 6 6 6 6 4 6 10 10 10 10 10 9 9
5 4 5 6 6 6 7 8 7 7 6 5 5 7 6 4 5 5 8 8 7 7 6 5 5 4 3 2 2 3 4 3 6 5 4 9 10 11 10 10 10 10 9
4 4 4 5 6 6 5 5 4 4 4 3 3 4 3 2 4 6 8 8 6 5 4 3 3 3 2 1 1 2 2 4 5 5 5 10 11 11 11 11 11 10 10
3 3 4 4 5 5 3 3 2 2 2 2 3 3 2 3 3 4 3 4 4 4 2 3 3 2 1 1 2 3 4 4 4 4 6 11 11 11 11 11 11 11 10
4 3 3 3 4 4 4 3 2 2 2 2 2 3 2 1 1 2 2 3 2 1 1 1 1 2 2 3 5 5 5 4 4 4 5 11 11 11 11 10 10 10 10
3 3 3 2 3 3 4 2 3 2 2 2 1 2 3 2 2 1 1 1 1 1 1 2 2 3 4 4 5 5 5 5 6 5 4 10 11 11 11 11 10 10 10
3 3 3 3 3 3 3 2 2 2 2 2 1 1 2 2 2 2 2 1 2 2 2 2 3 3 3 4 5 5 4 4 4 5 4 6 9 11 11 11 10 10 10
4 3 3 4 4 3 3 2 2 2 2 2 1 0 1 2 2 2 2 2 2 2 3 3 4 3 3 3 4 4 4 4 4 4 4 3 4 8 11 11 11 10 10
3 3 3 3 4 3 3 2 2 2 2 2 1 1 1 2 3 3 2 2 2 3 3 2 3 3 3 3 3 3 3 2 3 2 3 3 3 4 7 10 11 10 10
3 3 4 3 4 3 3 3 2 2 2 2 2 2 2 2 2 3 2 1 3 2 2 3 3 3 2 2 2 2 2 2 2 3 4 4 4 4 4 7 9 10 10
2 3 4 3 3 3 3 2 2 2 2 2 2 1 2 1 2 3 2 2 3 3 2 3 3 2 2 2 2 2 2 2 2 3 3 3 3 4 4 4 4 6 9
1 2 4 4 3 3 2 2 2 2 1 1 1 2 2 1 2 3 2 2 3 2 2 2 2 2 1 1 2 2 2 2 2 2 2 2 3 3 3 4 3 3 4
2 1 3 4 4 4 3 2 2 2 1 2 1 1 1 2 2 2 2 2 2 2 2 2 2 1 0 1 1 1 1 2 3 3 2 2 3 3 3 4 4 4 4
3 3 3 3 5 5 5 2 2 2 1 2 2 1 0 1 1 1 2 2 3 2 1 1 1 1 1 1 1 1 2 1 1 2 3 3 3 3 3 3 4 5 5
4 3 4 4 4 5 6 4 3 3 2 2 2 2 1 2 2 1 2 2 2 2 2 2 2 1 1 0 0 0 1 3 2 0 1 1 2 3 3 3 4 4 5
4 3 3 4 4 5 6 5 4 2 2 2 2 3 2 2 2 1 1 2 2 2 2 1 1 1 1 1 1 0 1 0 1 2 1 0 1 1 2 2 3 3 4
4 4 3 3 3 3 4 5 4 3 3 3 3 2 2 2 1 2 1 2 2 2 2 2 1 1 0 0 0 1 1 1 1 1 2 2 1 1 2 2 2 2 3
Wind_Direction
89 87 85 80 78 81 83 80 80 84 85 84 82 81 80 80 79 78 78 78 77 75 73 73 72 71 69 69 68 67 68 68 72 75 76 77 74 69 66 65 65 71 76
101 98 94 87 83 82 83 83 84 86 87 88 86 84 83 81 80 79 78 79 77 76 75 75 74 73 72 71 70 68 66 66 69 76 84 84 76 69 65 63 62 70 73
102 105 98 91 88 87 87 88 89 90 90 90 87 86 86 83 79 80 79 78 76 75 74 74 73 73 72 71 70 68 63 55 46 50 70 92 83 72 69 66 66 66 68
97 96 93 94 92 92 93 93 92 94 94 94 90 87 89 86 83 80 79 77 75 72 72 74 74 73 71 69 67 64 54 33 22 41 59 71 73 76 71 68 66 64 65
94 93 95 93 92 91 92 93 95 97 96 95 92 91 90 88 86 83 82 80 77 73 72 74 74 73 70 66 62 52 34 15 29 52 65 70 68 74 71 68 64 63 65
100 98 100 98 98 96 95 97 99 98 98 97 94 94 93 91 90 86 83 81 79 78 76 76 73 72 68 62 55 40 21 22 47 62 66 73 72 74 73 69 66 65 66
108 109 108 104 104 102 99 98 100 99 99 99 96 95 94 92 91 88 84 82 82 81 80 78 75 72 69 60 48 32 19 25 71 72 67 70 71 75 72 67 65 64 66
113 112 114 113 111 105 102 101 102 102 101 100 100 101 99 97 93 90 87 85 84 84 83 82 77 75 72 60 44 32 23 26 71 72 71 69 74 75 72 67 65 63 63
110 118 127 130 122 116 110 108 107 108 109 110 112 112 110 108 105 100 95 92 90 89 88 87 84 81 75 63 47 31 23 28 58 62 68 68 75 74 71 69 67 63 63
112 123 131 136 134 130 123 120 119 119 124 130 130 129 127 127 124 117 108 100 99 97 95 98 95 92 87 72 44 28 23 30 65 62 60 71 76 75 73 73 69 65 64
109 119 127 128 128 130 133 135 138 138 145 151 154 156 156 155 134 120 110 113 109 111 115 119 122 122 118 91 45 33 30 68 72 67 55 71 73 74 74 73 71 69 68
136 135 129 133 133 132 131 139 154 152 158 173 159 160 176 127 104 114 124 130 134 137 143 163 174 178 201 162 102 59 59 74 77 73 64 71 70 69 72 71 68 65 65
132 126 128 131 127 128 131 137 128 130 150 159 142 133 115 106 127 133 143 147 160 176 187 179 203 210 173 105 88 86 77 71 72 68 64 69 68 68 71 69 65 62 61
137 123 118 120 129 136 129 127 138 142 153 148 144 134 117 115 124 125 138 150 159 164 152 125 105 67 61 64 70 74 76 80 84 79 68 70 68 70 73 70 66 63 61
123 129 137 133 122 120 112 134 144 143 138 122 106 123 127 124 124 118 124 112 121 117 98 68 71 58 50 49 59 67 69 79 88 85 72 71 67 68 72 72 68 66 64
138 148 149 152 131 129 131 139 124 122 111 111 108 151 138 135 129 118 105 104 94 85 78 80 80 73 59 54 56 56 53 64 86 100 97 76 71 71 70 69 70 69 68
163 162 160 161 147 147 132 125 113 115 115 109 119 255 109 110 112 107 104 110 107 98 82 72 72 73 80 69 64 62 54 50 63 85 107 108 86 74 72 71 70 68 67
165 159 146 162 146 133 126 123 119 116 112 119 115 57 66 84 78 78 67 85 84 86 86 82 78 70 67 61 51 52 55 49 56 63 83 95 102 94 78 77 72 67 64
160 147 149 164 151 139 124 121 115 108 105 101 91 74 47 64 88 86 69 69 83 86 87 89 76 77 79 80 76 61 49 49 45 54 71 77 87 103 103 87 77 70 64
136 146 144 137 140 126 118 126 103 90 94 91 87 91 74 65 94 92 86 70 73 74 74 88 93 80 78 82 79 72 51 54 54 45 56 69 79 90 98 102 93 72 65
133 141 141 144 150 129 119 119 114 105 97 92 100 101 108 93 86 97 96 81 73 82 99 109 104 97 77 89 83 59 37 47 74 62 45 53 64 73 90 93 94 90 72
156 169 159 159 153 135 128 137 134 129 134 117 100 94 109 118 114 120 118 109 101 91 86 95 101 105 134 143 124 105 50 15 27 55 53 54 55 52 63 75 82 80 81
173 175 177 156 154 140 137 135 131 118 128 116 121 106 92 96 98 103 122 126 138 133 130 149 155 146 188 244 127 130 136 149 28 10 45 56 51 44 49 53 70 73 79
177 179 177 159 161 152 148 152 158 154 153 152 149 156 158 121 110 90 123 141 140 133 142 200 166 163 151 231 300 245 134 139 142 85 2 43 62 58 53 56 62 69 80
166 162 158 155 159 158 159 154 166 158 151 144 142 153 151 133 141 153 164 146 140 139 153 164 120 157 172 175 176 162 70 119 155 151 174 286 39 52 73 76 74 73 77
149 149 152 149 146 148 155 155 171 162 157 150 152 151 144 135 155 173 154 137 149 156 161 158 155 153 184 64 81 117 137 144 193 141 158 164 125 68 77 78 86 95 91